Regional Weather Roundup
Issued by NWS

Home | Current Version | Previous Version | Graphics & Text | Print | Product List | Glossary On
Versions: 1 2 3 4 5 6 7 8 9 10 11 12 13 14 15 16 17 18 19 20 21 22 23 24 25 26 27 28 29 30 31 32 33 34 35 36 37 38 39 40 41 42 43 44 45 46 47 48 49 50
000
ASUS45 KBOU 192107
RWRCO

WEATHER ROUNDUP FOR COLORADO
NATIONAL WEATHER SERVICE DENVER/BOULDER CO
200 PM MST THU JAN 19 2017

NOTE: "FAIR" INDICATES FEW OR NO CLOUDS BELOW 12000 FEET WITH NO
SIGNIFICANT WEATHER AND/OR OBSTRUCTIONS TO VISIBILITY.

COZ001>005-013-030-031-192200-
...NORTHWEST COLORADO...

CITY           SKY/WX    TMP DP  RH WIND       PRES   REMARKS
CRAIG          CLOUDY    27  17  66 CALM      29.73F
HAYDEN         CLOUDY    25  16  68 E5        29.72F WCI  19
MEEKER         CLOUDY    37  23  56 SW7       29.72F
MOUNT WERNER   NOT AVBL
STEAMBOAT SPGS CLOUDY    24  15  68 CALM      29.72F
WALDEN           N/A     21  12  68 E3        29.69F
$$

COZ006>008-011-192200-
...WEST CENTRAL VALLEYS...

CITY           SKY/WX    TMP DP  RH WIND       PRES   REMARKS
GRAND JUNCTION CLOUDY    36  29  75 W7        29.75F
MONTROSE       CLOUDY    40  23  50 N6        29.75F
EAGLE          SUNNY     32  18  55 W5        29.77F WCI  27
RIFLE          CLOUDY    37  22  54 SE3       29.74F
DELTA          CLOUDY    42  26  53 W3        29.75F
NUCLA          CLOUDY    37  27  65 SW5       29.82F
$$

COZ017>023-064>068-192200-
...SOUTHWEST COLORADO...

CITY           SKY/WX    TMP DP  RH WIND       PRES   REMARKS
DURANGO        CLOUDY    36  25  64 SW6       29.80F
CORTEZ         CLOUDY    37  28  70 SW8       29.81F
PAGOSA SPRINGS FAIR      36  19  51 S6        29.79F THUNDER
TELLURIDE      CLOUDY    32  19  57 W12G17    29.76S WCI  23
WOLF CREEK PAS CLOUDY    18  18 100 SW13      29.81F WCI   4
$$

COZ009-010-012-014-032>034-037-058>063-192200-
...CENTRAL COLORADO...

CITY           SKY/WX    TMP DP  RH WIND       PRES   REMARKS
ASPEN          FAIR      36  15  42 CALM      29.70F
BUENA VISTA    FAIR      33  18  52 CALM      29.65F
COPPER MTN     NOT AVBL
BERTHOUD PASS  NOT AVBL
COTTONWOOD PAS FAIR      39  12  33 W7        29.67F
GUNNISON       FLURRIES  11   6  81 SE5       29.80F WCI   3
KREMMLING      FAIR      21  10  63 CALM      29.78F
LEADVILLE      FAIR      38  10  31 NW10      29.65F
MONARCH PASS   FAIR      21  14  73 W15G24    29.82F HAZE    WCI   8
SALIDA         FAIR      40  18  41 SW21G26   29.70F
SUNLIGHT       CLOUDY    27  19  74 SW7       29.76F WCI  19
WILKERSON PASS FAIR      36   0  21 W6        29.73F
$$

COZ069>075-192200-
...SAN LUIS VALLEY/SANGRE DE CRISTO MOUNTAINS...

CITY           SKY/WX    TMP DP  RH WIND       PRES   REMARKS
ALAMOSA        CLOUDY    20  18  92 CALM      29.78F
LA VETA PASS   FOG       21  18  86 NE29G36   29.67F VSB 1/2 WCI   3
SAGUACHE       FAIR      27  21  80 S6        29.77F WCI  20
$$

COZ035-036-038>040-192200-
...NORTHERN COLORADO FRONT RANGE...

CITY           SKY/WX    TMP DP  RH WIND       PRES   REMARKS
DENVER INTL AP FAIR      53  17  24 E10       29.51F
DMNS CITY PARK   N/A     54  14  21 E15       29.51S
AURORA         MOSUNNY   53  17  24 SE8       29.53F
FRONT RANGE AP MOSUNNY   55  19  24 SE10      29.53F
ERIE MUNI ARPT FAIR      51  18  27 CALM      29.51F
BOULDER MUN AP FAIR      50  21  32 CALM      29.52S
CENTENNIAL     FAIR      51  18  27 E8        29.52F
BROOMFIELD     MOSUNNY   52  21  30 CALM      29.53F
FORT COLLINS   FAIR      54  21  28 S7        29.52F
LONGMONT       FAIR      56  25  30 E3        29.53F
$$

COZ041-046-047-076>085-087-088-192200-
...PIKES PEAK/PALMER DIVIDE AND SOUTHERN FOOTHILLS...

CITY           SKY/WX    TMP DP  RH WIND       PRES   REMARKS
COLO. SPRINGS  FAIR      52  11  19 S7        29.56F
A. F. ACADEMY  FAIR      53  10  17 VRB7      29.54F
SCHRIEVER AFB  NOT AVBL
ELLICOTT       FAIR     N/A N/A N/A CALM      29.54F
FALCON         FAIR      52   8  16 S8        29.58S
FORT CARSON    NOT AVBL
LIMON          FAIR      53  17  24 NW7       29.53F
MONUMENT HILL  FAIR      50  16  25 E6        29.57F
TRINIDAD       FAIR      41  23  48 SE8       29.55F
$$

COZ042>045-048>051-090-091-192200-
...NORTHEAST COLORADO...

CITY           SKY/WX    TMP DP  RH WIND       PRES   REMARKS
GREELEY ARPT   FAIR      48  28  46 E5        29.52F
AKRON          FAIR      46  23  40 NW6       29.52F
BURLINGTON     FAIR      49  28  44 N7        29.53F
WRAY           NOT AVBL
STERLING       FAIR      46  27  46 S3        29.51F
HOLYOKE        FAIR      50  27  40 CALM      29.52F
FORT MORGAN    FAIR      49  22  34 CALM      29.53F
$$

COZ086-089-092>099-192200-
...SOUTHEAST COLORADO...

CITY           SKY/WX    TMP DP  RH WIND       PRES   REMARKS
PUEBLO         FAIR      54  22  28 SE7       29.52F
LA JUNTA       FAIR      45  31  58 S3        29.53F
LAMAR          FAIR      44  29  55 SW7       29.52
SPRINGFIELD    NOT AVBL
$$



USA.gov is the U.S. government's official web portal to all federal, state and local government web resources and services.